Wind_Speed
28 29 29 29 29 30 31 32 33 31 31 30 30 31 31 31 31 31 31 31 31 32 34 34 35 36 37 37 38 38 39 40 41 43 44 44 45 46 46 47 47 47 47 46
28 29 30 29 29 30 30 29 30 31 30 30 31 31 31 31 31 32 32 32 32 33 34 36 36 36 37 38 39 39 40 41 41 42 43 44 45 45 46 46 46 47 46 46
30 30 31 30 28 29 29 29 30 31 31 31 31 31 31 31 32 32 32 33 33 34 34 36 37 38 38 38 39 39 40 41 42 42 43 44 44 44 44 44 45 45 45 46
31 31 31 30 29 29 30 30 31 31 32 32 33 32 32 32 32 32 33 34 35 36 36 36 37 38 38 38 39 39 40 40 41 41 42 42 42 42 43 43 44 44 45 46
31 32 32 31 30 30 31 30 31 31 32 33 33 33 33 34 34 34 35 35 36 36 36 36 37 37 37 38 39 39 39 39 40 41 41 41 41 41 41 42 43 44 44 44
31 32 32 31 30 31 31 32 31 32 32 32 32 33 33 34 35 35 36 36 36 35 35 36 36 36 37 38 38 38 37 37 38 38 39 39 39 40 41 42 42 42 42 42
32 32 32 32 31 31 32 32 32 32 32 32 32 33 34 34 35 35 35 35 36 35 35 35 36 36 36 36 36 36 36 37 37 37 38 37 37 38 39 40 41 41 41 41
33 33 33 32 32 33 33 33 33 32 32 32 32 32 32 33 33 34 34 34 35 35 35 35 35 35 34 34 35 35 35 35 36 36 37 36 36 37 36 37 39 40 40 40
32 32 32 32 32 33 33 33 33 32 32 31 31 31 31 31 32 32 33 34 34 34 34 33 34 34 34 34 34 34 35 35 34 35 34 34 35 35 35 36 37 36 37 37
31 30 31 31 31 32 32 33 32 32 31 31 30 30 31 31 31 32 32 33 33 33 33 33 33 33 33 32 32 33 34 34 34 34 34 34 34 33 32 32 32 33 33 33
32 30 30 30 31 32 32 32 32 32 31 31 31 31 31 32 32 32 32 32 32 33 33 33 33 32 32 32 32 33 33 32 32 32 32 31 30 29 28 28 29 30 30 30
30 30 31 30 31 31 32 32 32 32 32 32 32 31 32 32 31 31 32 32 33 33 33 34 33 33 32 31 31 31 31 30 30 29 29 28 28 27 27 27 27 27 27 28
31 31 32 31 31 31 31 31 31 32 32 32 32 32 32 32 32 32 33 33 33 33 33 33 33 33 32 32 31 30 30 29 28 27 26 26 26 26 26 26 27 27 26 27
33 33 33 32 32 31 31 31 31 31 32 32 33 33 33 33 33 33 33 34 34 33 33 33 32 32 32 31 31 29 28 27 26 26 25 25 25 25 25 25 25 25 27 27
33 33 33 32 32 32 32 32 32 32 33 33 33 34 35 35 34 34 34 34 34 33 33 32 32 31 31 30 29 28 27 27 25 25 24 25 25 25 25 25 25 25 26 26
33 34 34 33 32 32 32 33 33 33 33 33 33 34 34 35 34 34 33 33 33 32 32 32 31 30 29 28 27 26 25 25 24 24 25 25 25 25 25 25 25 25 25 25
34 34 34 33 33 32 32 32 33 32 32 33 33 34 34 34 34 33 32 32 32 31 31 30 29 28 27 26 25 24 24 23 24 24 25 25 24 25 25 25 25 25 25 25
34 34 34 34 32 32 32 32 32 32 32 33 33 33 34 33 33 32 32 31 30 29 28 28 27 26 25 24 24 24 24 24 23 24 24 23 24 24 24 23 23 24 24 24
31 32 32 32 32 31 31 32 32 32 32 33 32 32 32 32 31 31 30 29 28 28 27 27 26 25 24 24 24 24 24 24 24 25 24 24 24 24 24 23 22 22 22 22
28 28 29 30 31 31 31 32 32 32 32 32 32 31 30 30 29 28 28 28 27 27 26 26 26 25 24 24 25 25 25 25 25 25 25 25 24 23 22 22 21 21 21 20
27 27 27 28 29 30 30 31 31 31 31 30 30 29 28 27 27 26 26 26 26 26 26 26 25 25 25 25 25 25 25 26 26 25 25 24 23 22 21 21 20 20 19 19
27 27 27 27 27 28 29 29 30 30 30 29 28 28 27 27 26 25 25 25 25 25 25 25 25 25 24 25 25 25 26 26 26 25 24 24 23 22 22 21 20 19 19 19
26 26 27 27 27 28 28 29 29 28 28 28 28 28 27 27 26 26 25 25 25 25 24 24 24 24 24 24 25 25 25 26 26 25 24 23 23 22 22 21 20 19 19 19
26 26 27 28 28 28 28 28 28 28 27 27 28 28 27 27 27 27 26 26 25 25 24 24 24 24 24 24 24 24 24 24 24 23 23 22 21 21 20 20 20 19 19 18
26 26 27 28 28 27 27 27 27 27 27 27 27 27 27 27 27 27 26 26 25 24 24 24 24 24 23 23 22 22 22 21 21 20 21 20 20 19 19 19 19 19 18 18
25 26 26 27 27 27 26 26 27 27 27 27 27 27 27 26 26 26 26 26 25 24 24 24 23 22 22 21 20 20 20 20 19 19 19 18 18 18 18 18 18 18 18 18
26 26 26 26 26 26 26 25 26 26 26 26 26 26 26 26 25 25 24 24 24 23 23 22 21 21 20 20 20 19 19 19 18 18 18 17 17 17 17 18 18 19 18 19
Wind_Direction
270 271 272 273 273 272 272 273 274 275 276 278 279 279 279 280 280 279 280 279 277 276 274 274 276 278 278 278 278 278 277 276 275 274 273 272 271 271 270 268 267 267 268 269
270 271 273 273 273 273 273 275 276 276 277 278 279 279 279 280 280 280 280 280 280 279 277 277 278 278 279 279 279 279 279 278 278 277 276 274 272 271 270 269 267 267 268 269
272 272 273 272 273 273 275 277 278 279 280 281 281 280 280 280 281 283 282 281 282 281 281 280 280 280 281 281 281 281 281 280 280 279 277 276 273 271 270 270 268 268 268 268
274 273 273 275 274 274 276 277 279 280 281 281 281 281 281 282 284 286 285 283 282 282 283 283 283 283 283 283 284 283 283 283 281 280 279 277 274 273 271 270 270 269 269 269
276 275 275 275 277 277 277 278 279 282 282 282 282 280 281 283 285 286 286 285 285 283 284 285 285 284 283 284 284 284 283 283 282 281 281 279 276 274 272 271 271 270 269 269
275 276 276 277 277 277 277 278 281 282 283 283 282 281 281 283 285 285 285 285 286 286 287 287 286 287 286 286 286 285 285 284 284 283 283 282 279 275 274 273 272 271 271 270
275 276 277 278 277 276 278 280 281 282 283 284 284 284 284 285 285 286 286 286 287 287 288 287 287 289 290 289 286 285 286 285 285 284 284 282 280 278 276 275 273 272 271 271
275 276 278 278 277 276 278 280 281 282 283 283 284 286 287 287 287 286 286 287 287 287 288 288 289 290 292 290 288 287 287 287 286 285 284 282 281 281 278 277 276 274 272 271
276 278 279 277 277 277 279 280 281 282 281 282 283 285 286 287 287 287 287 287 287 288 288 289 291 292 292 292 291 290 289 287 287 287 285 283 284 282 280 279 277 274 272 271
275 276 276 276 276 276 277 278 280 280 279 280 281 282 284 287 288 287 288 288 288 288 289 290 291 292 292 292 293 291 290 289 288 286 286 285 284 282 279 278 277 275 273 271
275 275 275 276 277 277 277 277 278 279 278 278 279 281 284 286 287 287 288 287 288 289 289 290 291 292 292 292 293 291 291 291 290 288 288 286 283 282 282 281 279 277 274 272
276 275 275 276 276 276 275 275 276 276 276 278 280 282 285 287 287 288 289 288 288 288 289 289 289 290 291 292 292 291 292 292 291 288 286 284 283 283 284 282 279 279 278 276
276 275 275 277 276 276 275 275 276 276 277 278 280 282 284 286 288 289 290 289 288 289 289 289 289 289 289 290 291 291 291 291 291 290 287 284 283 284 283 281 279 276 276 277
276 276 277 277 276 274 274 274 275 276 277 278 279 281 283 285 287 288 289 290 290 290 291 290 289 289 290 290 290 291 291 290 290 288 286 285 282 283 284 282 280 277 276 277
276 276 276 276 275 275 275 275 276 276 277 278 280 282 284 286 286 287 288 289 290 290 290 290 290 289 290 289 288 288 289 290 290 288 286 284 284 284 282 282 282 279 277 276
275 276 276 275 275 275 276 277 277 277 277 278 281 283 285 286 287 288 288 289 290 290 289 289 289 289 288 288 287 287 289 290 290 290 289 287 286 284 282 281 281 280 279 278
276 275 275 275 274 275 276 277 277 277 278 279 282 284 285 286 286 287 288 289 289 290 290 290 290 289 288 287 286 286 286 288 290 291 291 289 288 285 283 281 281 280 280 281
276 276 276 274 273 274 276 277 277 279 279 281 283 286 287 286 285 286 287 288 289 290 290 291 291 290 289 287 286 286 286 287 289 292 291 290 289 288 285 283 282 281 281 282
278 278 277 275 273 273 274 276 277 279 280 282 285 287 287 287 287 287 288 287 287 288 289 289 290 290 289 287 286 287 288 288 289 291 291 291 291 289 288 285 284 283 283 284
281 280 278 276 274 274 275 276 278 280 281 282 285 287 287 287 287 287 288 287 286 285 286 286 287 288 288 286 285 286 287 287 287 289 291 291 290 288 287 286 286 286 285 284
282 282 281 279 277 277 277 278 280 281 281 283 285 287 287 287 288 288 287 287 286 285 284 285 286 287 287 286 284 284 285 286 286 288 289 289 288 288 286 286 287 286 284 283
283 283 281 280 279 278 278 279 281 282 282 282 283 285 286 286 287 287 287 287 286 284 284 285 286 286 286 286 286 285 285 285 286 286 286 285 285 285 285 285 286 285 283 282
284 283 282 281 280 280 279 280 282 282 282 282 283 284 284 285 285 285 285 286 286 284 283 284 285 286 287 287 287 286 286 287 287 285 284 283 282 282 282 282 283 285 284 283
285 284 283 281 281 281 280 280 281 281 282 282 283 284 285 285 285 284 284 284 285 285 283 283 284 286 287 286 286 286 288 289 288 287 285 283 281 280 279 280 281 282 283 282
288 286 286 283 281 281 281 280 280 280 281 282 283 283 285 285 285 284 283 283 283 282 282 282 283 285 285 285 285 286 287 289 290 291 290 287 283 280 279 279 279 280 281 283
291 290 289 286 283 281 282 281 280 279 280 282 283 285 286 286 286 285 284 282 281 280 281 281 281 282 282 282 283 284 285 287 289 291 290 288 285 282 282 280 278 279 280 283
290 291 290 289 287 284 282 282 281 280 279 280 282 284 286 287 286 285 284 282 280 279 279 279 279 279 280 282 283 283 284 284 286 288 288 286 285 285 284 283 280 279 280 284
Height
5613 5613 5612 5612 5612 5611 5610 5610 5609 5610 5610 5611 5609 5606 5605 5604 5602 5602 5601 5599 5598 5596 5595 5593 5592 5591 5589 5587 5586 5584 5583 5582 5581 5579 5578 5578 5577 5576 5576 5575 5576 5576 5577 5577
5606 5606 5604 5604 5605 5604 5604 5603 5602 5601 5602 5602 5600 5599 5597 5596 5594 5593 5592 5591 5589 5587 5586 5584 5583 5581 5579 5577 5575 5573 5571 5570 5568 5567 5565 5564 5563 5563 5562 5562 5562 5563 5564 5564
5599 5598 5597 5598 5599 5597 5597 5596 5595 5594 5595 5593 5592 5591 5589 5587 5586 5585 5583 5582 5580 5578 5577 5575 5572 5570 5568 5566 5564 5562 5560 5558 5556 5554 5552 5550 5549 5549 5549 5549 5550 5550 5551 5552
5591 5591 5590 5594 5592 5590 5589 5589 5587 5586 5585 5584 5583 5582 5581 5579 5577 5576 5574 5573 5571 5569 5567 5565 5562 5560 5558 5556 5553 5551 5548 5546 5543 5541 5538 5537 5536 5536 5536 5536 5536 5537 5538 5539
5583 5581 5582 5584 5584 5582 5581 5581 5580 5578 5577 5576 5574 5573 5572 5570 5568 5567 5565 5563 5561 5559 5557 5555 5552 5550 5547 5545 5542 5539 5536 5534 5531 5529 5526 5525 5523 5523 5523 5523 5524 5525 5525 5526
5575 5574 5574 5577 5576 5574 5573 5572 5572 5570 5568 5567 5565 5565 5564 5562 5560 5557 5555 5553 5551 5549 5547 5545 5542 5540 5537 5534 5531 5528 5525 5523 5520 5517 5515 5513 5511 5511 5511 5511 5512 5512 5513 5513
5567 5565 5566 5569 5568 5566 5566 5566 5564 5561 5560 5558 5557 5556 5555 5552 5550 5548 5546 5544 5542 5539 5537 5535 5532 5530 5527 5523 5520 5517 5515 5512 5510 5507 5504 5502 5501 5500 5500 5499 5500 5500 5501 5502
5559 5558 5561 5559 5558 5558 5557 5555 5554 5552 5551 5550 5548 5547 5545 5543 5541 5539 5537 5535 5532 5530 5528 5525 5522 5520 5517 5514 5511 5508 5505 5502 5500 5497 5494 5492 5491 5490 5489 5489 5489 5489 5489 5490
5551 5552 5551 5549 5549 5548 5547 5546 5545 5544 5543 5541 5540 5538 5537 5535 5532 5530 5528 5526 5523 5521 5519 5516 5513 5511 5508 5505 5501 5499 5496 5493 5490 5487 5485 5483 5482 5480 5479 5479 5478 5478 5479 5479
5542 5542 5541 5540 5539 5538 5538 5537 5536 5535 5534 5533 5531 5530 5528 5526 5524 5522 5519 5517 5515 5512 5510 5508 5505 5502 5499 5496 5492 5490 5487 5484 5481 5479 5476 5474 5472 5471 5470 5469 5468 5468 5469 5469
5533 5533 5532 5531 5530 5530 5529 5527 5527 5526 5525 5524 5523 5521 5520 5518 5516 5513 5511 5508 5506 5504 5501 5499 5496 5493 5490 5487 5484 5481 5479 5475 5472 5470 5468 5466 5464 5463 5462 5461 5460 5460 5461 5461
5525 5524 5523 5523 5521 5520 5519 5518 5518 5517 5516 5515 5514 5513 5511 5509 5507 5505 5502 5500 5498 5495 5493 5490 5488 5485 5482 5479 5476 5473 5471 5467 5465 5462 5460 5459 5457 5457 5455 5454 5453 5453 5453 5453
5516 5514 5514 5513 5512 5511 5510 5510 5509 5508 5507 5507 5505 5504 5502 5501 5499 5496 5494 5491 5489 5487 5484 5481 5479 5476 5473 5470 5468 5465 5463 5460 5457 5455 5453 5452 5451 5450 5449 5448 5446 5446 5445 5445
5506 5505 5505 5504 5503 5502 5501 5501 5500 5499 5498 5498 5496 5495 5493 5491 5489 5487 5485 5482 5480 5477 5475 5472 5469 5467 5464 5462 5460 5457 5455 5452 5450 5448 5446 5445 5444 5443 5442 5441 5440 5439 5439 5438
5496 5495 5495 5494 5494 5493 5492 5492 5491 5490 5489 5488 5487 5485 5484 5482 5480 5478 5475 5473 5471 5468 5466 5463 5461 5458 5456 5454 5451 5450 5448 5446 5444 5442 5440 5439 5437 5436 5435 5434 5433 5433 5432 5431
5486 5485 5485 5484 5484 5484 5483 5483 5482 5481 5480 5479 5478 5476 5474 5472 5470 5468 5466 5463 5461 5459 5456 5454 5452 5450 5448 5446 5444 5442 5440 5439 5437 5435 5434 5432 5431 5429 5428 5427 5426 5426 5425 5424
5476 5476 5475 5475 5475 5474 5474 5473 5472 5471 5471 5470 5468 5466 5464 5462 5460 5458 5456 5454 5452 5450 5448 5446 5444 5442 5440 5438 5436 5435 5434 5432 5430 5429 5427 5426 5424 5422 5421 5420 5419 5418 5417 5416
5466 5466 5465 5465 5465 5464 5464 5464 5463 5462 5461 5460 5459 5457 5455 5453 5451 5449 5447 5445 5443 5442 5439 5437 5435 5434 5432 5430 5429 5428 5427 5425 5424 5422 5421 5419 5417 5416 5414 5413 5412 5411 5410 5409
5456 5456 5455 5455 5455 5455 5455 5454 5453 5453 5452 5450 5449 5447 5445 5443 5441 5440 5438 5436 5435 5434 5432 5430 5428 5426 5425 5423 5422 5421 5419 5418 5417 5415 5414 5412 5410 5409 5407 5406 5405 5404 5403 5402
5448 5447 5446 5446 5445 5445 5445 5445 5444 5443 5442 5441 5439 5438 5436 5434 5433 5431 5429 5428 5426 5425 5424 5422 5420 5419 5417 5416 5415 5413 5412 5411 5409 5408 5406 5405 5403 5402 5400 5399 5398 5397 5396 5396
5440 5439 5438 5437 5437 5436 5436 5435 5435 5434 5433 5432 5430 5429 5427 5426 5424 5423 5421 5420 5418 5416 5415 5414 5412 5411 5410 5408 5407 5406 5404 5403 5402 5400 5399 5397 5396 5395 5394 5393 5392 5391 5390 5390
5432 5431 5430 5429 5428 5428 5427 5426 5425 5424 5424 5423 5421 5420 5419 5418 5416 5414 5413 5412 5410 5409 5407 5406 5405 5403 5402 5400 5399 5398 5397 5395 5394 5393 5392 5390 5389 5388 5387 5387 5386 5385 5384 5384
5424 5423 5422 5421 5420 5419 5418 5417 5416 5415 5415 5414 5413 5411 5410 5409 5408 5406 5405 5404 5402 5401 5399 5398 5397 5395 5394 5393 5391 5390 5389 5388 5387 5386 5385 5383 5383 5382 5381 5380 5380 5379 5378 5378
5416 5415 5414 5413 5412 5411 5410 5409 5408 5407 5406 5405 5404 5403 5402 5400 5399 5398 5396 5395 5394 5392 5391 5390 5389 5387 5386 5385 5384 5383 5382 5381 5380 5379 5377 5376 5376 5375 5374 5374 5373 5373 5372 5372
5408 5407 5405 5404 5403 5402 5401 5400 5399 5398 5397 5396 5395 5394 5393 5392 5390 5389 5388 5386 5385 5384 5383 5382 5381 5380 5379 5378 5377 5376 5375 5374 5373 5372 5371 5370 5369 5368 5368 5368 5367 5367 5366 5365
5400 5399 5397 5396 5395 5394 5392 5391 5390 5389 5388 5388 5387 5386 5384 5383 5382 5380 5379 5378 5377 5376 5376 5374 5374 5373 5372 5371 5370 5369 5368 5368 5367 5366 5365 5364 5363 5362 5362 5361 5361 5360 5360 5359
5392 5391 5389 5388 5386 5385 5384 5383 5382 5381 5380 5379 5378 5377 5376 5375 5373 5372 5371 5370 5369 5369 5368 5367 5366 5366 5365 5365 5364 5363 5362 5361 5361 5360 5359 5358 5357 5357 5356 5355 5355 5354 5354 5353